Time,TemperatureF,DewpointF,PressureIn,WindDirection,WindDirectionDegrees,WindSpeedMPH,WindSpeedGustMPH,Humidity,HourlyPrecipIn,Conditions,Clouds,dailyrainin,SoftwareType,DateUTC
2013-04-18 00:03:00,38.3,36.7,29.76,NNW,337,2.0,-999.0,94,0.00,,,0.00,Wunderground v.1.15,2013-04-18 05:03:00,
2013-04-18 00:08:00,38.2,36.6,29.79,North,356,3.0,-999.0,94,0.00,,,0.00,Wunderground v.1.15,2013-04-18 05:08:00,
2013-04-18 00:13:00,38.1,36.5,29.79,NW,323,3.0,-999.0,94,0.00,,,0.00,Wunderground v.1.15,2013-04-18 05:13:00,
2013-04-18 00:18:00,38.0,36.4,29.76,NNW,333,9.0,-999.0,94,0.00,,,0.00,Wunderground v.1.15,2013-04-18 05:18:00,
2013-04-18 00:23:00,38.0,36.4,29.76,NNW,335,0.0,-999.0,94,0.00,,,0.00,Wunderground v.1.15,2013-04-18 05:23:00,
2013-04-18 00:28:00,37.8,36.5,29.76,NNW,329,5.0,-999.0,95,0.13,,,0.02,Wunderground v.1.15,2013-04-18 05:28:00,
2013-04-18 00:34:00,37.7,36.4,29.73,NNW,341,3.0,-999.0,95,0.16,,,0.03,Wunderground v.1.15,2013-04-18 05:34:00,
2013-04-18 00:39:00,37.6,36.3,29.72,NNW,337,4.0,-999.0,95,0.13,,,0.04,Wunderground v.1.15,2013-04-18 05:39:00,
2013-04-18 00:44:00,37.5,36.2,29.72,NNW,346,2.0,-999.0,95,0.21,,,0.06,Wunderground v.1.15,2013-04-18 05:44:00,
2013-04-18 00:49:00,37.5,36.2,29.70,NNW,338,4.0,-999.0,95,0.10,,,0.07,Wunderground v.1.15,2013-04-18 05:49:00,
2013-04-18 00:54:00,37.3,36.0,29.69,NNW,342,7.0,-999.0,95,0.10,,,0.07,Wunderground v.1.15,2013-04-18 05:54:00,
2013-04-18 01:00:00,37.2,35.9,29.71,NNW,343,5.0,-999.0,95,0.08,,,0.08,Wunderground v.1.15,2013-04-18 06:00:00,
2013-04-18 01:05:00,37.2,35.9,29.67,NW,307,4.0,-999.0,95,0.09,,,0.09,Wunderground v.1.15,2013-04-18 06:05:00,
2013-04-18 01:10:00,37.1,35.8,29.74,NNW,340,4.0,-999.0,95,0.13,,,0.10,Wunderground v.1.15,2013-04-18 06:10:00,
2013-04-18 01:15:00,37.1,35.8,29.75,NW,318,2.0,-999.0,95,0.11,,,0.11,Wunderground v.1.15,2013-04-18 06:15:00,
2013-04-18 01:20:00,37.1,35.8,29.75,North,349,2.0,-999.0,95,0.08,,,0.11,Wunderground v.1.15,2013-04-18 06:20:00,
2013-04-18 01:26:00,37.0,35.7,29.77,WNW,300,1.0,-999.0,95,0.05,,,0.11,Wunderground v.1.15,2013-04-18 06:26:00,
2013-04-18 01:31:00,37.0,35.7,29.76,NNW,335,1.0,-999.0,95,0.04,,,0.12,Wunderground v.1.15,2013-04-18 06:31:00,
2013-04-18 01:36:00,37.0,35.7,29.78,NNE,20,2.0,-999.0,95,0.04,,,0.12,Wunderground v.1.15,2013-04-18 06:36:00,
2013-04-18 01:41:00,37.0,35.7,29.77,NW,315,3.0,-999.0,95,0.04,,,0.12,Wunderground v.1.15,2013-04-18 06:41:00,
2013-04-18 01:46:00,37.0,35.7,29.79,NNW,340,2.0,-999.0,95,0.04,,,0.12,Wunderground v.1.15,2013-04-18 06:46:00,
2013-04-18 01:51:00,36.9,35.3,29.76,NW,326,5.0,-999.0,94,0.16,,,0.14,Wunderground v.1.15,2013-04-18 06:51:00,
2013-04-18 01:57:00,36.8,35.5,29.77,NNW,330,3.0,-999.0,95,0.21,,,0.16,Wunderground v.1.15,2013-04-18 06:57:00,
2013-04-18 02:02:00,36.7,35.4,29.76,NW,310,3.0,-999.0,95,0.15,,,0.18,Wunderground v.1.15,2013-04-18 07:02:00,
2013-04-18 02:07:00,36.7,35.4,29.76,NW,306,4.0,-999.0,95,0.18,,,0.19,Wunderground v.1.15,2013-04-18 07:07:00,
2013-04-18 02:12:00,36.6,35.3,29.76,WNW,300,3.0,-999.0,95,0.11,,,0.20,Wunderground v.1.15,2013-04-18 07:12:00,
2013-04-18 02:17:00,36.5,35.2,29.74,NW,321,10.0,-999.0,95,0.18,,,0.22,Wunderground v.1.15,2013-04-18 07:17:00,
2013-04-18 02:22:00,36.4,35.1,29.75,NNW,346,3.0,-999.0,95,0.10,,,0.22,Wunderground v.1.15,2013-04-18 07:22:00,
2013-04-18 02:27:00,36.4,35.1,29.72,WNW,300,4.0,-999.0,95,0.07,,,0.23,Wunderground v.1.15,2013-04-18 07:27:00,
2013-04-18 02:32:00,36.3,35.0,29.74,NW,318,0.0,-999.0,95,0.20,,,0.25,Wunderground v.1.15,2013-04-18 07:32:00,
2013-04-18 02:37:00,36.3,35.0,29.73,WNW,283,2.0,-999.0,95,0.11,,,0.25,Wunderground v.1.15,2013-04-18 07:37:00,
2013-04-18 02:42:00,36.3,35.0,29.74,NW,305,7.0,-999.0,95,0.06,,,0.25,Wunderground v.1.15,2013-04-18 07:42:00,
2013-04-18 02:47:00,36.3,35.0,29.76,WNW,302,4.0,-999.0,95,0.04,,,0.25,Wunderground v.1.15,2013-04-18 07:47:00,
2013-04-18 02:52:00,36.3,35.0,29.76,NW,324,2.0,-999.0,95,0.00,,,0.25,Wunderground v.1.15,2013-04-18 07:52:00,
2013-04-18 02:57:00,36.1,34.8,29.71,NNW,329,6.0,-999.0,95,0.27,,,0.27,Wunderground v.1.15,2013-04-18 07:57:00,
2013-04-18 03:02:00,36.0,34.7,29.69,NNW,335,6.0,-999.0,95,0.27,,,0.29,Wunderground v.1.15,2013-04-18 08:02:00,
2013-04-18 03:07:00,35.9,34.6,29.70,NNW,333,4.0,-999.0,95,0.09,,,0.29,Wunderground v.1.15,2013-04-18 08:07:00,
2013-04-18 03:12:00,35.9,34.6,29.71,North,350,5.0,-999.0,95,0.05,,,0.29,Wunderground v.1.15,2013-04-18 08:12:00,
2013-04-18 03:17:00,35.9,34.3,29.70,NNW,335,5.0,-999.0,94,0.04,,,0.29,Wunderground v.1.15,2013-04-18 08:17:00,
2013-04-18 03:22:00,35.9,34.3,29.70,WNW,294,2.0,-999.0,94,0.00,,,0.29,Wunderground v.1.15,2013-04-18 08:22:00,
2013-04-18 03:27:00,35.9,34.3,29.70,NNW,329,5.0,-999.0,94,0.00,,,0.29,Wunderground v.1.15,2013-04-18 08:27:00,
2013-04-18 03:32:00,35.9,34.3,29.70,NNW,347,5.0,-999.0,94,0.00,,,0.29,Wunderground v.1.15,2013-04-18 08:32:00,
2013-04-18 03:37:00,35.8,34.2,29.69,North,349,1.0,-999.0,94,0.00,,,0.29,Wunderground v.1.15,2013-04-18 08:37:00,
2013-04-18 03:42:00,35.8,34.2,29.68,NNW,343,1.0,-999.0,94,0.00,,,0.29,Wunderground v.1.15,2013-04-18 08:42:00,
2013-04-18 03:47:00,35.8,34.5,29.70,NNE,13,3.0,-999.0,95,0.00,,,0.30,Wunderground v.1.15,2013-04-18 08:47:00,
2013-04-18 03:52:00,35.7,34.1,29.70,NW,323,2.0,-999.0,94,0.00,,,0.30,Wunderground v.1.15,2013-04-18 08:52:00,
2013-04-18 03:57:00,35.7,34.1,29.69,NNW,348,1.0,-999.0,94,0.00,,,0.30,Wunderground v.1.15,2013-04-18 08:57:00,
2013-04-18 04:02:00,35.7,34.4,29.67,NNW,333,10.0,-999.0,95,0.04,,,0.31,Wunderground v.1.15,2013-04-18 09:02:00,
2013-04-18 04:07:00,35.6,34.3,29.67,NNW,335,3.0,-999.0,95,0.04,,,0.31,Wunderground v.1.15,2013-04-18 09:07:00,
2013-04-18 04:12:00,35.5,34.2,29.68,NW,309,2.0,-999.0,95,0.04,,,0.31,Wunderground v.1.15,2013-04-18 09:12:00,
2013-04-18 04:17:00,35.5,34.2,29.68,NW,326,2.0,-999.0,95,0.00,,,0.31,Wunderground v.1.15,2013-04-18 09:17:00,
2013-04-18 04:22:00,35.5,34.2,29.69,North,4,0.0,-999.0,95,0.00,,,0.31,Wunderground v.1.15,2013-04-18 09:22:00,
2013-04-18 04:27:00,35.5,34.2,29.67,NNW,345,0.0,-999.0,95,0.00,,,0.31,Wunderground v.1.15,2013-04-18 09:27:00,
2013-04-18 04:32:00,35.4,34.1,29.67,NNW,345,6.0,-999.0,95,0.00,,,0.31,Wunderground v.1.15,2013-04-18 09:32:00,
2013-04-18 04:37:00,35.4,33.8,29.69,NNW,343,2.0,-999.0,94,0.00,,,0.31,Wunderground v.1.15,2013-04-18 09:37:00,
2013-04-18 04:42:00,35.4,33.8,29.69,NW,317,5.0,-999.0,94,0.00,,,0.31,Wunderground v.1.15,2013-04-18 09:42:00,
2013-04-18 04:47:00,35.4,33.8,29.67,NW,321,2.0,-999.0,94,0.00,,,0.31,Wunderground v.1.15,2013-04-18 09:47:00,
2013-04-18 04:53:00,35.3,33.7,29.66,NNW,342,4.0,-999.0,94,0.00,,,0.31,Wunderground v.1.15,2013-04-18 09:53:00,
2013-04-18 04:58:00,35.3,34.0,29.68,NNW,333,8.0,-999.0,95,0.00,,,0.31,Wunderground v.1.15,2013-04-18 09:58:00,
2013-04-18 05:03:00,35.3,34.0,29.67,NE,51,7.0,-999.0,95,0.00,,,0.31,Wunderground v.1.15,2013-04-18 10:03:00,
2013-04-18 05:08:00,35.2,33.9,29.67,NNW,328,1.0,-999.0,95,0.00,,,0.31,Wunderground v.1.15,2013-04-18 10:08:00,
2013-04-18 05:12:00,35.1,33.8,29.67,NW,323,4.0,-999.0,95,0.00,,,0.31,Wunderground v.1.15,2013-04-18 10:12:00,
2013-04-18 05:17:00,35.1,33.8,29.67,North,1,2.0,-999.0,95,0.00,,,0.31,Wunderground v.1.15,2013-04-18 10:17:00,
2013-04-18 05:22:00,35.0,33.7,29.68,NNW,327,2.0,-999.0,95,0.00,,,0.31,Wunderground v.1.15,2013-04-18 10:22:00,
2013-04-18 05:27:00,35.0,33.7,29.69,NW,312,6.0,-999.0,95,0.00,,,0.31,Wunderground v.1.15,2013-04-18 10:27:00,
2013-04-18 05:32:00,35.0,33.7,29.68,NNW,328,2.0,-999.0,95,0.00,,,0.31,Wunderground v.1.15,2013-04-18 10:32:00,
2013-04-18 05:38:00,34.9,33.6,29.67,NNW,340,0.0,-999.0,95,0.00,,,0.31,Wunderground v.1.15,2013-04-18 10:38:00,
2013-04-18 05:43:00,34.8,33.5,29.67,WNW,285,0.0,-999.0,95,0.00,,,0.31,Wunderground v.1.15,2013-04-18 10:43:00,
2013-04-18 05:47:00,34.8,33.5,29.68,WNW,300,3.0,-999.0,95,0.00,,,0.32,Wunderground v.1.15,2013-04-18 10:47:00,
2013-04-18 05:52:00,34.8,33.8,29.68,NNW,340,4.0,-999.0,96,0.00,,,0.32,Wunderground v.1.15,2013-04-18 10:52:00,
2013-04-18 05:58:00,34.7,33.7,29.68,WNW,295,0.0,-999.0,96,0.00,,,0.32,Wunderground v.1.15,2013-04-18 10:58:00,
2013-04-18 06:02:00,34.7,33.7,29.67,WNW,300,3.0,-999.0,96,0.00,,,0.32,Wunderground v.1.15,2013-04-18 11:02:00,
2013-04-18 06:07:00,34.6,33.6,29.67,NNW,347,4.0,-999.0,96,0.00,,,0.32,Wunderground v.1.15,2013-04-18 11:07:00,
2013-04-18 06:12:00,34.5,33.5,29.66,North,352,1.0,-999.0,96,0.00,,,0.32,Wunderground v.1.15,2013-04-18 11:12:00,
2013-04-18 06:17:00,34.5,33.5,29.67,NNW,339,4.0,-999.0,96,0.00,,,0.33,Wunderground v.1.15,2013-04-18 11:17:00,
2013-04-18 06:23:00,34.5,33.5,29.68,NW,307,3.0,-999.0,96,0.00,,,0.33,Wunderground v.1.15,2013-04-18 11:23:00,
2013-04-18 06:28:00,34.5,33.5,29.68,NW,316,2.0,-999.0,96,0.00,,,0.33,Wunderground v.1.15,2013-04-18 11:28:00,
2013-04-18 06:33:00,34.4,33.4,29.67,WNW,290,1.0,-999.0,96,0.00,,,0.33,Wunderground v.1.15,2013-04-18 11:33:00,
2013-04-18 06:38:00,34.4,33.4,29.67,NW,310,2.0,-999.0,96,0.00,,,0.33,Wunderground v.1.15,2013-04-18 11:38:00,
2013-04-18 06:43:00,34.3,33.3,29.67,WNW,290,5.0,-999.0,96,0.00,,,0.33,Wunderground v.1.15,2013-04-18 11:43:00,
2013-04-18 06:48:00,34.3,33.3,29.67,NNW,331,3.0,-999.0,96,0.00,,,0.33,Wunderground v.1.15,2013-04-18 11:48:00,
2013-04-18 06:53:00,34.3,33.3,29.68,WNW,298,4.0,-999.0,96,0.00,,,0.33,Wunderground v.1.15,2013-04-18 11:53:00,
2013-04-18 06:58:00,34.2,33.2,29.69,WNW,290,1.0,-999.0,96,0.00,,,0.33,Wunderground v.1.15,2013-04-18 11:58:00,
2013-04-18 07:03:00,34.2,33.2,29.69,NW,304,4.0,-999.0,96,0.00,,,0.33,Wunderground v.1.15,2013-04-18 12:03:00,
2013-04-18 07:08:00,34.2,33.2,29.70,NNW,337,3.0,-999.0,96,0.00,,,0.33,Wunderground v.1.15,2013-04-18 12:08:00,
2013-04-18 07:13:00,34.3,33.3,29.70,West,281,3.0,-999.0,96,0.00,,,0.33,Wunderground v.1.15,2013-04-18 12:13:00,
2013-04-18 07:18:00,34.3,33.3,29.72,NNW,329,5.0,-999.0,96,0.00,,,0.33,Wunderground v.1.15,2013-04-18 12:18:00,
2013-04-18 07:23:00,34.3,33.3,29.73,WNW,302,4.0,-999.0,96,0.00,,,0.34,Wunderground v.1.15,2013-04-18 12:23:00,
2013-04-18 07:28:00,34.3,33.3,29.72,NNW,335,3.0,-999.0,96,0.00,,,0.34,Wunderground v.1.15,2013-04-18 12:28:00,
2013-04-18 07:33:00,34.3,33.3,29.72,WNW,302,5.0,-999.0,96,0.00,,,0.34,Wunderground v.1.15,2013-04-18 12:33:00,
2013-04-18 07:38:00,34.2,33.2,29.72,WNW,291,2.0,-999.0,96,0.00,,,0.34,Wunderground v.1.15,2013-04-18 12:38:00,
2013-04-18 07:43:00,34.2,33.2,29.71,WNW,294,3.0,-999.0,96,0.00,,,0.34,Wunderground v.1.15,2013-04-18 12:43:00,
2013-04-18 07:48:00,34.2,33.2,29.71,NNW,335,1.0,-999.0,96,0.00,,,0.35,Wunderground v.1.15,2013-04-18 12:48:00,
2013-04-18 07:53:00,34.1,33.1,29.70,WNW,298,4.0,-999.0,96,0.00,,,0.35,Wunderground v.1.15,2013-04-18 12:53:00,
2013-04-18 07:58:00,34.2,33.2,29.72,NW,309,3.0,-999.0,96,0.00,,,0.35,Wunderground v.1.15,2013-04-18 12:58:00,
2013-04-18 08:03:00,34.3,33.3,29.72,WNW,285,3.0,-999.0,96,0.00,,,0.35,Wunderground v.1.15,2013-04-18 13:03:00,
2013-04-18 08:08:00,34.3,33.3,29.73,WNW,300,2.0,-999.0,96,0.00,,,0.35,Wunderground v.1.15,2013-04-18 13:08:00,
2013-04-18 08:13:00,34.3,33.3,29.73,WNW,292,7.0,-999.0,96,0.00,,,0.35,Wunderground v.1.15,2013-04-18 13:13:00,
2013-04-18 08:18:00,34.4,33.4,29.72,NW,305,3.0,-999.0,96,0.00,,,0.35,Wunderground v.1.15,2013-04-18 13:18:00,
2013-04-18 08:23:00,34.4,33.1,29.71,NNW,337,7.0,-999.0,95,0.00,,,0.35,Wunderground v.1.15,2013-04-18 13:23:00,
2013-04-18 08:28:00,34.5,33.5,29.70,WNW,291,2.0,-999.0,96,0.00,,,0.35,Wunderground v.1.15,2013-04-18 13:28:00,
2013-04-18 08:33:00,34.5,33.5,29.71,NW,306,3.0,-999.0,96,0.00,,,0.35,Wunderground v.1.15,2013-04-18 13:33:00,
2013-04-18 08:38:00,34.6,33.6,29.71,West,264,3.0,-999.0,96,0.00,,,0.35,Wunderground v.1.15,2013-04-18 13:38:00,
2013-04-18 08:43:00,34.6,33.6,29.71,NNW,329,2.0,-999.0,96,0.00,,,0.35,Wunderground v.1.15,2013-04-18 13:43:00,
2013-04-18 08:48:00,34.6,33.6,29.71,West,269,4.0,-999.0,96,0.00,,,0.36,Wunderground v.1.15,2013-04-18 13:48:00,
2013-04-18 08:53:00,34.6,33.3,29.71,NW,308,2.0,-999.0,95,0.00,,,0.36,Wunderground v.1.15,2013-04-18 13:53:00,
2013-04-18 08:58:00,34.7,33.4,29.71,WNW,294,3.0,-999.0,95,0.00,,,0.36,Wunderground v.1.15,2013-04-18 13:58:00,
2013-04-18 09:03:00,34.7,33.4,29.70,NNW,341,3.0,-999.0,95,0.00,,,0.36,Wunderground v.1.15,2013-04-18 14:03:00,
2013-04-18 09:08:00,34.7,33.4,29.70,WNW,296,3.0,-999.0,95,0.00,,,0.36,Wunderground v.1.15,2013-04-18 14:08:00,
2013-04-18 09:13:00,34.7,33.4,29.71,NNW,327,6.0,-999.0,95,0.00,,,0.36,Wunderground v.1.15,2013-04-18 14:13:00,
2013-04-18 09:18:00,34.7,33.4,29.71,WNW,300,4.0,-999.0,95,0.00,,,0.36,Wunderground v.1.15,2013-04-18 14:18:00,
2013-04-18 09:23:00,34.3,32.8,29.70,WNW,295,3.0,-999.0,94,0.00,,,0.36,Wunderground v.1.15,2013-04-18 14:23:00,
2013-04-18 09:28:00,33.9,32.4,29.71,WNW,285,7.0,-999.0,94,0.00,,,0.36,Wunderground v.1.15,2013-04-18 14:28:00,
2013-04-18 09:33:00,33.8,32.5,29.71,North,352,4.0,-999.0,95,0.00,,,0.36,Wunderground v.1.15,2013-04-18 14:33:00,
2013-04-18 09:38:00,33.7,32.4,29.71,WNW,291,3.0,-999.0,95,0.00,,,0.36,Wunderground v.1.15,2013-04-18 14:38:00,
2013-04-18 09:43:00,33.7,32.4,29.71,WNW,300,3.0,-999.0,95,0.00,,,0.36,Wunderground v.1.15,2013-04-18 14:43:00,
2013-04-18 09:48:00,33.7,32.4,29.71,WNW,300,4.0,-999.0,95,0.00,,,0.36,Wunderground v.1.15,2013-04-18 14:48:00,
2013-04-18 09:53:00,33.6,32.3,29.71,WNW,292,2.0,-999.0,95,0.00,,,0.36,Wunderground v.1.15,2013-04-18 14:53:00,
2013-04-18 09:58:00,33.7,32.2,29.71,NW,305,4.0,-999.0,94,0.00,,,0.36,Wunderground v.1.15,2013-04-18 14:58:00,
2013-04-18 10:03:00,33.7,32.2,29.71,West,280,6.0,-999.0,94,0.00,,,0.36,Wunderground v.1.15,2013-04-18 15:03:00,
2013-04-18 10:08:00,33.7,32.2,29.72,NNW,331,11.0,-999.0,94,0.00,,,0.36,Wunderground v.1.15,2013-04-18 15:08:00,
2013-04-18 10:13:00,33.7,32.2,29.72,North,6,6.0,-999.0,94,0.00,,,0.36,Wunderground v.1.15,2013-04-18 15:13:00,
2013-04-18 10:18:00,33.7,32.2,29.72,WNW,284,5.0,-999.0,94,0.00,,,0.36,Wunderground v.1.15,2013-04-18 15:18:00,
2013-04-18 10:23:00,33.8,32.3,29.71,WNW,294,7.0,-999.0,94,0.00,,,0.36,Wunderground v.1.15,2013-04-18 15:23:00,
2013-04-18 10:28:00,33.6,31.8,29.71,NW,318,6.0,-999.0,93,0.00,,,0.36,Wunderground v.1.15,2013-04-18 15:28:00,
2013-04-18 10:33:00,33.5,31.7,29.71,West,259,11.0,-999.0,93,0.00,,,0.36,Wunderground v.1.15,2013-04-18 15:33:00,
2013-04-18 10:38:00,33.5,31.7,29.71,WNW,293,5.0,-999.0,93,0.00,,,0.36,Wunderground v.1.15,2013-04-18 15:38:00,
2013-04-18 10:43:00,33.5,31.7,29.72,NW,315,4.0,-999.0,93,0.00,,,0.36,Wunderground v.1.15,2013-04-18 15:43:00,
2013-04-18 10:48:00,33.5,31.7,29.72,NW,309,9.0,-999.0,93,0.00,,,0.36,Wunderground v.1.15,2013-04-18 15:48:00,
2013-04-18 10:53:00,33.3,31.5,29.72,WNW,300,8.0,-999.0,93,0.00,,,0.36,Wunderground v.1.15,2013-04-18 15:53:00,
2013-04-18 10:58:00,33.3,31.5,29.72,NNE,23,5.0,-999.0,93,0.00,,,0.36,Wunderground v.1.15,2013-04-18 15:58:00,
2013-04-18 11:03:00,33.4,31.6,29.72,NW,312,4.0,-999.0,93,0.00,,,0.36,Wunderground v.1.15,2013-04-18 16:03:00,
2013-04-18 11:08:00,33.3,31.5,29.72,NW,305,10.0,-999.0,93,0.00,,,0.36,Wunderground v.1.15,2013-04-18 16:08:00,
2013-04-18 11:13:00,33.4,31.6,29.73,NW,317,7.0,-999.0,93,0.00,,,0.36,Wunderground v.1.15,2013-04-18 16:13:00,
2013-04-18 11:18:00,33.6,31.5,29.73,NNW,337,8.0,-999.0,92,0.00,,,0.36,Wunderground v.1.15,2013-04-18 16:18:00,
2013-04-18 11:23:00,33.8,31.7,29.72,ENE,57,7.0,-999.0,92,0.00,,,0.36,Wunderground v.1.15,2013-04-18 16:23:00,
2013-04-18 11:28:00,33.9,31.8,29.72,NNW,333,6.0,-999.0,92,0.00,,,0.36,Wunderground v.1.15,2013-04-18 16:28:00,
2013-04-18 11:33:00,33.9,31.6,29.72,WNW,302,6.0,-999.0,91,0.00,,,0.36,Wunderground v.1.15,2013-04-18 16:33:00,
2013-04-18 11:38:00,34.1,31.7,29.72,WNW,290,4.0,-999.0,91,0.00,,,0.36,Wunderground v.1.15,2013-04-18 16:38:00,
2013-04-18 11:43:00,34.2,32.1,29.73,NW,325,6.0,-999.0,92,0.00,,,0.36,Wunderground v.1.15,2013-04-18 16:43:00,
2013-04-18 11:48:00,34.3,32.2,29.73,NW,304,7.0,-999.0,92,0.00,,,0.36,Wunderground v.1.15,2013-04-18 16:48:00,
2013-04-18 11:53:00,34.3,31.9,29.73,NW,314,3.0,-999.0,91,0.00,,,0.36,Wunderground v.1.15,2013-04-18 16:53:00,
2013-04-18 11:58:00,34.4,32.3,29.73,WNW,297,7.0,-999.0,92,0.00,,,0.36,Wunderground v.1.15,2013-04-18 16:58:00,
2013-04-18 12:03:00,34.3,32.2,29.73,NW,307,7.0,-999.0,92,0.00,,,0.36,Wunderground v.1.15,2013-04-18 17:03:00,
2013-04-18 12:08:00,34.2,32.1,29.73,NW,304,6.0,-999.0,92,0.00,,,0.36,Wunderground v.1.15,2013-04-18 17:08:00,
2013-04-18 12:13:00,34.2,32.4,29.73,NNW,343,5.0,-999.0,93,0.00,,,0.36,Wunderground v.1.15,2013-04-18 17:13:00,
2013-04-18 12:18:00,34.2,32.1,29.73,NW,320,4.0,-999.0,92,0.00,,,0.36,Wunderground v.1.15,2013-04-18 17:18:00,
2013-04-18 12:23:00,34.3,32.5,29.73,NNW,337,2.0,-999.0,93,0.00,,,0.36,Wunderground v.1.15,2013-04-18 17:23:00,
2013-04-18 12:28:00,34.5,32.4,29.73,North,349,11.0,-999.0,92,0.00,,,0.36,Wunderground v.1.15,2013-04-18 17:28:00,
2013-04-18 12:33:00,34.5,32.4,29.73,NNW,337,7.0,-999.0,92,0.00,,,0.36,Wunderground v.1.15,2013-04-18 17:33:00,
2013-04-18 12:38:00,34.6,32.2,29.73,NNW,334,4.0,-999.0,91,0.00,,,0.36,Wunderground v.1.15,2013-04-18 17:38:00,
2013-04-18 12:43:00,35.0,33.2,29.73,NNW,333,2.0,-999.0,93,0.00,,,0.36,Wunderground v.1.15,2013-04-18 17:43:00,
2013-04-18 12:48:00,35.2,32.8,29.73,WNW,289,5.0,-999.0,91,0.00,,,0.36,Wunderground v.1.15,2013-04-18 17:48:00,
2013-04-18 12:53:00,35.4,33.0,29.73,West,261,5.0,-999.0,91,0.00,,,0.36,Wunderground v.1.15,2013-04-18 17:53:00,
2013-04-18 12:58:00,35.7,33.3,29.73,WNW,301,4.0,-999.0,91,0.00,,,0.36,Wunderground v.1.15,2013-04-18 17:58:00,
2013-04-18 13:03:00,35.9,33.3,29.73,NW,321,4.0,-999.0,90,0.00,,,0.36,Wunderground v.1.15,2013-04-18 18:03:00,
2013-04-18 13:08:00,35.8,32.9,29.73,NW,320,4.0,-999.0,89,0.00,,,0.36,Wunderground v.1.15,2013-04-18 18:08:00,
2013-04-18 13:13:00,35.9,33.0,29.73,WNW,288,8.0,-999.0,89,0.00,,,0.36,Wunderground v.1.15,2013-04-18 18:13:00,
2013-04-18 13:18:00,35.9,32.7,29.74,WNW,298,5.0,-999.0,88,0.00,,,0.36,Wunderground v.1.15,2013-04-18 18:18:00,
2013-04-18 13:23:00,35.9,32.4,29.74,NNW,331,5.0,-999.0,87,0.00,,,0.36,Wunderground v.1.15,2013-04-18 18:23:00,
2013-04-18 13:28:00,35.7,32.2,29.74,WNW,290,7.0,-999.0,87,0.00,,,0.36,Wunderground v.1.15,2013-04-18 18:28:00,
2013-04-18 13:33:00,35.6,31.8,29.75,WNW,295,4.0,-999.0,86,0.00,,,0.36,Wunderground v.1.15,2013-04-18 18:33:00,
2013-04-18 13:38:00,35.5,31.7,29.75,WNW,300,7.0,-999.0,86,0.00,,,0.36,Wunderground v.1.15,2013-04-18 18:38:00,
2013-04-18 13:43:00,35.4,31.3,29.75,WNW,287,6.0,-999.0,85,0.00,,,0.36,Wunderground v.1.15,2013-04-18 18:43:00,
2013-04-18 13:48:00,35.5,32.0,29.75,WNW,295,3.0,-999.0,87,0.00,,,0.36,Wunderground v.1.15,2013-04-18 18:48:00,
2013-04-18 13:53:00,35.5,32.0,29.76,West,265,7.0,-999.0,87,0.00,,,0.36,Wunderground v.1.15,2013-04-18 18:53:00,
2013-04-18 13:58:00,35.5,31.7,29.76,West,259,11.0,-999.0,86,0.00,,,0.36,Wunderground v.1.15,2013-04-18 18:58:00,
2013-04-18 14:03:00,35.5,31.7,29.77,WNW,300,8.0,-999.0,86,0.00,,,0.36,Wunderground v.1.15,2013-04-18 19:03:00,
2013-04-18 14:08:00,35.3,31.5,29.77,West,262,5.0,-999.0,86,0.00,,,0.36,Wunderground v.1.15,2013-04-18 19:08:00,
2013-04-18 14:13:00,35.2,31.4,29.77,WNW,293,3.0,-999.0,86,0.00,,,0.36,Wunderground v.1.15,2013-04-18 19:13:00,
2013-04-18 14:18:00,35.1,31.3,29.77,WNW,294,7.0,-999.0,86,0.00,,,0.36,Wunderground v.1.15,2013-04-18 19:18:00,
2013-04-18 14:23:00,35.0,30.9,29.78,WNW,297,7.0,-999.0,85,0.00,,,0.36,Wunderground v.1.15,2013-04-18 19:23:00,
2013-04-18 14:28:00,35.0,30.9,29.78,NW,315,4.0,-999.0,85,0.00,,,0.36,Wunderground v.1.15,2013-04-18 19:28:00,
2013-04-18 14:33:00,35.1,31.0,29.78,NNW,334,4.0,-999.0,85,0.00,,,0.36,Wunderground v.1.15,2013-04-18 19:33:00,
2013-04-18 14:38:00,35.1,31.0,29.78,WNW,296,6.0,-999.0,85,0.00,,,0.36,Wunderground v.1.15,2013-04-18 19:38:00,
2013-04-18 14:43:00,35.0,30.7,29.78,NNW,341,5.0,-999.0,84,0.00,,,0.36,Wunderground v.1.15,2013-04-18 19:43:00,
2013-04-18 14:48:00,35.0,30.7,29.79,NW,323,4.0,-999.0,84,0.00,,,0.36,Wunderground v.1.15,2013-04-18 19:48:00,
2013-04-18 14:53:00,35.1,31.0,29.79,NW,304,2.0,-999.0,85,0.00,,,0.36,Wunderground v.1.15,2013-04-18 19:53:00,
2013-04-18 14:58:00,35.2,31.1,29.79,WNW,284,9.0,-999.0,85,0.00,,,0.36,Wunderground v.1.15,2013-04-18 19:58:00,
2013-04-18 15:03:00,35.2,31.1,29.79,West,273,8.0,-999.0,85,0.00,,,0.36,Wunderground v.1.15,2013-04-18 20:03:00,
2013-04-18 15:08:00,35.3,30.9,29.79,SW,231,4.0,-999.0,84,0.00,,,0.36,Wunderground v.1.15,2013-04-18 20:08:00,
2013-04-18 15:13:00,35.5,31.4,29.79,WNW,293,2.0,-999.0,85,0.00,,,0.36,Wunderground v.1.15,2013-04-18 20:13:00,
2013-04-18 15:18:00,35.7,31.6,29.79,NNW,333,4.0,-999.0,85,0.00,,,0.36,Wunderground v.1.15,2013-04-18 20:18:00,
2013-04-18 15:23:00,35.7,31.3,29.79,NNW,337,3.0,-999.0,84,0.00,,,0.36,Wunderground v.1.15,2013-04-18 20:23:00,
2013-04-18 15:28:00,35.8,30.8,29.79,WNW,288,6.0,-999.0,82,0.00,,,0.36,Wunderground v.1.15,2013-04-18 20:28:00,
2013-04-18 15:33:00,36.0,31.0,29.79,West,274,1.0,-999.0,82,0.00,,,0.36,Wunderground v.1.15,2013-04-18 20:33:00,
2013-04-18 15:38:00,36.3,31.3,29.79,NNW,342,6.0,-999.0,82,0.00,,,0.36,Wunderground v.1.15,2013-04-18 20:38:00,
2013-04-18 15:43:00,36.1,31.1,29.79,NW,308,4.0,-999.0,82,0.00,,,0.36,Wunderground v.1.15,2013-04-18 20:43:00,
2013-04-18 15:48:00,36.1,31.1,29.79,WNW,288,9.0,-999.0,82,0.00,,,0.36,Wunderground v.1.15,2013-04-18 20:48:00,
2013-04-18 15:53:00,36.1,30.8,29.80,WNW,296,5.0,-999.0,81,0.00,,,0.36,Wunderground v.1.15,2013-04-18 20:53:00,
2013-04-18 15:58:00,36.3,31.6,29.79,NW,326,4.0,-999.0,83,0.00,,,0.36,Wunderground v.1.15,2013-04-18 20:58:00,
2013-04-18 16:03:00,36.6,32.2,29.79,WNW,285,3.0,-999.0,84,0.00,,,0.36,Wunderground v.1.15,2013-04-18 21:03:00,
2013-04-18 16:08:00,36.7,31.4,29.79,West,278,7.0,-999.0,81,0.00,,,0.36,Wunderground v.1.15,2013-04-18 21:08:00,
2013-04-18 16:13:00,36.7,31.4,29.80,North,1,4.0,-999.0,81,0.00,,,0.36,Wunderground v.1.15,2013-04-18 21:13:00,
2013-04-18 16:18:00,36.4,31.4,29.80,NNW,329,5.0,-999.0,82,0.00,,,0.36,Wunderground v.1.15,2013-04-18 21:18:00,
2013-04-18 16:23:00,36.4,31.4,29.80,WNW,298,4.0,-999.0,82,0.00,,,0.36,Wunderground v.1.15,2013-04-18 21:23:00,
2013-04-18 16:28:00,36.5,31.5,29.80,WNW,283,8.0,-999.0,82,0.00,,,0.36,Wunderground v.1.15,2013-04-18 21:28:00,
2013-04-18 16:33:00,36.5,30.9,29.80,West,276,3.0,-999.0,80,0.00,,,0.36,Wunderground v.1.15,2013-04-18 21:33:00,
2013-04-18 16:38:00,36.6,31.6,29.80,WNW,288,6.0,-999.0,82,0.00,,,0.36,Wunderground v.1.15,2013-04-18 21:38:00,
2013-04-18 16:43:00,36.6,31.3,29.81,NNW,330,5.0,-999.0,81,0.00,,,0.36,Wunderground v.1.15,2013-04-18 21:43:00,
2013-04-18 16:48:00,36.7,31.7,29.81,WNW,298,5.0,-999.0,82,0.00,,,0.36,Wunderground v.1.15,2013-04-18 21:48:00,
2013-04-18 16:53:00,36.8,31.5,29.81,NW,309,4.0,-999.0,81,0.00,,,0.36,Wunderground v.1.15,2013-04-18 21:53:00,
2013-04-18 16:58:00,36.6,31.0,29.81,NNW,333,3.0,-999.0,80,0.00,,,0.36,Wunderground v.1.15,2013-04-18 21:58:00,
2013-04-18 17:03:00,36.5,31.5,29.81,WNW,291,4.0,-999.0,82,0.00,,,0.36,Wunderground v.1.15,2013-04-18 22:03:00,
2013-04-18 17:08:00,36.4,31.4,29.81,NNW,341,5.0,-999.0,82,0.00,,,0.36,Wunderground v.1.15,2013-04-18 22:08:00,
2013-04-18 17:13:00,36.2,31.5,29.81,West,276,4.0,-999.0,83,0.00,,,0.36,Wunderground v.1.15,2013-04-18 22:13:00,
2013-04-18 17:18:00,36.0,30.7,29.81,NW,320,3.0,-999.0,81,0.00,,,0.36,Wunderground v.1.15,2013-04-18 22:18:00,
2013-04-18 17:23:00,35.9,30.6,29.81,West,280,7.0,-999.0,81,0.00,,,0.36,Wunderground v.1.15,2013-04-18 22:23:00,
2013-04-18 17:28:00,35.8,30.8,29.81,WSW,248,5.0,-999.0,82,0.00,,,0.36,Wunderground v.1.15,2013-04-18 22:28:00,
2013-04-18 17:33:00,35.6,30.9,29.81,NW,321,3.0,-999.0,83,0.00,,,0.36,Wunderground v.1.15,2013-04-18 22:33:00,
2013-04-18 17:38:00,35.7,31.0,29.82,WNW,288,7.0,-999.0,83,0.00,,,0.36,Wunderground v.1.15,2013-04-18 22:38:00,
2013-04-18 17:43:00,35.7,31.0,29.82,West,275,9.0,-999.0,83,0.00,,,0.36,Wunderground v.1.15,2013-04-18 22:43:00,
2013-04-18 17:48:00,35.6,31.2,29.83,NW,307,6.0,-999.0,84,0.00,,,0.36,Wunderground v.1.15,2013-04-18 22:48:00,
2013-04-18 17:53:00,35.5,31.1,29.83,WNW,294,4.0,-999.0,84,0.00,,,0.36,Wunderground v.1.15,2013-04-18 22:53:00,
2013-04-18 17:58:00,35.4,30.8,29.83,WNW,290,6.0,-999.0,83,0.00,,,0.36,Wunderground v.1.15,2013-04-18 22:58:00,
2013-04-18 18:03:00,35.3,30.7,29.83,West,278,9.0,-999.0,83,0.00,,,0.36,Wunderground v.1.15,2013-04-18 23:03:00,
2013-04-18 18:08:00,35.1,31.0,29.83,WNW,289,3.0,-999.0,85,0.00,,,0.36,Wunderground v.1.15,2013-04-18 23:08:00,
2013-04-18 18:13:00,35.1,31.0,29.83,West,281,12.0,-999.0,85,0.00,,,0.36,Wunderground v.1.15,2013-04-18 23:13:00,
2013-04-18 18:18:00,35.1,30.8,29.84,NW,304,4.0,-999.0,84,0.00,,,0.36,Wunderground v.1.15,2013-04-18 23:18:00,
2013-04-18 18:23:00,35.1,30.2,29.84,WNW,290,8.0,-999.0,82,0.00,,,0.36,Wunderground v.1.15,2013-04-18 23:23:00,
2013-04-18 18:28:00,35.2,30.3,29.84,WNW,291,7.0,-999.0,82,0.00,,,0.36,Wunderground v.1.15,2013-04-18 23:28:00,
2013-04-18 18:33:00,35.2,30.6,29.84,NW,314,3.0,-999.0,83,0.00,,,0.36,Wunderground v.1.15,2013-04-18 23:33:00,
2013-04-18 18:38:00,35.1,30.8,29.84,NNW,335,3.0,-999.0,84,0.00,,,0.36,Wunderground v.1.15,2013-04-18 23:38:00,
2013-04-18 18:43:00,35.1,30.5,29.84,NW,311,3.0,-999.0,83,0.00,,,0.36,Wunderground v.1.15,2013-04-18 23:43:00,
2013-04-18 18:48:00,35.2,30.6,29.85,West,270,6.0,-999.0,83,0.00,,,0.36,Wunderground v.1.15,2013-04-18 23:48:00,
2013-04-18 18:53:00,35.2,30.0,29.85,WNW,290,6.0,-999.0,81,0.00,,,0.36,Wunderground v.1.15,2013-04-18 23:53:00,
2013-04-18 18:58:00,35.2,30.6,29.85,WNW,300,2.0,-999.0,83,0.00,,,0.36,Wunderground v.1.15,2013-04-18 23:58:00,
2013-04-18 19:03:00,35.1,30.5,29.85,WNW,294,5.0,-999.0,83,0.00,,,0.36,Wunderground v.1.15,2013-04-19 00:03:00,
2013-04-18 19:08:00,35.1,30.2,29.85,WNW,301,2.0,-999.0,82,0.00,,,0.36,Wunderground v.1.15,2013-04-19 00:08:00,
2013-04-18 19:13:00,35.1,30.2,29.85,WNW,287,1.0,-999.0,82,0.00,,,0.36,Wunderground v.1.15,2013-04-19 00:13:00,
2013-04-18 19:18:00,35.1,29.9,29.85,WNW,288,4.0,-999.0,81,0.00,,,0.36,Wunderground v.1.15,2013-04-19 00:18:00,
2013-04-18 19:23:00,35.1,30.5,29.86,WNW,302,3.0,-999.0,83,0.00,,,0.36,Wunderground v.1.15,2013-04-19 00:23:00,
2013-04-18 19:28:00,35.0,29.5,29.86,NW,306,5.0,-999.0,80,0.00,,,0.36,Wunderground v.1.15,2013-04-19 00:28:00,
2013-04-18 19:33:00,34.9,29.4,29.86,WNW,288,8.0,-999.0,80,0.00,,,0.36,Wunderground v.1.15,2013-04-19 00:33:00,
2013-04-18 19:38:00,34.9,29.7,29.86,NW,311,3.0,-999.0,81,0.00,,,0.36,Wunderground v.1.15,2013-04-19 00:38:00,
2013-04-18 19:43:00,34.8,29.6,29.86,WNW,290,4.0,-999.0,81,0.00,,,0.36,Wunderground v.1.15,2013-04-19 00:43:00,
2013-04-18 19:48:00,34.8,29.6,29.86,WNW,290,10.0,-999.0,81,0.00,,,0.36,Wunderground v.1.15,2013-04-19 00:48:00,
2013-04-18 19:54:00,34.7,29.2,29.86,NW,323,5.0,-999.0,80,0.00,,,0.36,Wunderground v.1.15,2013-04-19 00:54:00,
2013-04-18 19:59:00,34.7,29.2,29.87,WNW,300,5.0,-999.0,80,0.00,,,0.36,Wunderground v.1.15,2013-04-19 00:59:00,
2013-04-18 20:04:00,34.7,29.2,29.87,West,278,7.0,-999.0,80,0.00,,,0.36,Wunderground v.1.15,2013-04-19 01:04:00,
2013-04-18 20:09:00,34.6,28.8,29.87,West,260,6.0,-999.0,79,0.00,,,0.36,Wunderground v.1.15,2013-04-19 01:09:00,
2013-04-18 20:14:00,34.6,29.1,29.88,NNW,328,4.0,-999.0,80,0.00,,,0.36,Wunderground v.1.15,2013-04-19 01:14:00,
2013-04-18 20:19:00,34.5,28.3,29.88,WNW,285,9.0,-999.0,78,0.00,,,0.36,Wunderground v.1.15,2013-04-19 01:19:00,
2013-04-18 20:24:00,34.4,28.6,29.88,WNW,288,8.0,-999.0,79,0.00,,,0.36,Wunderground v.1.15,2013-04-19 01:24:00,
2013-04-18 20:28:00,34.3,28.5,29.88,NNW,340,4.0,-999.0,79,0.00,,,0.36,Wunderground v.1.15,2013-04-19 01:28:00,
2013-04-18 20:33:00,34.2,28.7,29.89,NNW,337,4.0,-999.0,80,0.00,,,0.36,Wunderground v.1.15,2013-04-19 01:33:00,
2013-04-18 20:39:00,34.1,28.6,29.89,WNW,300,5.0,-999.0,80,0.00,,,0.36,Wunderground v.1.15,2013-04-19 01:39:00,
2013-04-18 20:44:00,34.0,28.5,29.89,WNW,302,5.0,-999.0,80,0.00,,,0.36,Wunderground v.1.15,2013-04-19 01:44:00,
2013-04-18 20:49:00,33.9,28.1,29.89,West,276,5.0,-999.0,79,0.00,,,0.36,Wunderground v.1.15,2013-04-19 01:49:00,
2013-04-18 20:54:00,33.7,28.2,29.89,NNW,337,4.0,-999.0,80,0.00,,,0.36,Wunderground v.1.15,2013-04-19 01:54:00,
2013-04-18 20:59:00,33.6,28.1,29.90,WNW,301,8.0,-999.0,80,0.00,,,0.36,Wunderground v.1.15,2013-04-19 01:59:00,
2013-04-18 21:04:00,33.6,27.8,29.90,WNW,288,5.0,-999.0,79,0.00,,,0.36,Wunderground v.1.15,2013-04-19 02:04:00,
2013-04-18 21:09:00,33.5,28.0,29.90,WNW,291,7.0,-999.0,80,0.00,,,0.36,Wunderground v.1.15,2013-04-19 02:09:00,
2013-04-18 21:14:00,33.4,27.9,29.90,WNW,298,4.0,-999.0,80,0.00,,,0.36,Wunderground v.1.15,2013-04-19 02:14:00,
2013-04-18 21:19:00,33.3,28.1,29.90,WNW,288,3.0,-999.0,81,0.00,,,0.36,Wunderground v.1.15,2013-04-19 02:19:00,
2013-04-18 21:24:00,33.2,28.0,29.91,WNW,287,4.0,-999.0,81,0.00,,,0.36,Wunderground v.1.15,2013-04-19 02:24:00,
2013-04-18 21:29:00,33.1,28.2,29.91,NW,326,3.0,-999.0,82,0.00,,,0.36,Wunderground v.1.15,2013-04-19 02:29:00,
2013-04-18 21:34:00,33.0,28.1,29.90,WSW,246,4.0,-999.0,82,0.00,,,0.36,Wunderground v.1.15,2013-04-19 02:34:00,
2013-04-18 21:39:00,32.8,28.2,29.90,NNW,335,2.0,-999.0,83,0.00,,,0.36,Wunderground v.1.15,2013-04-19 02:39:00,
2013-04-18 21:44:00,32.7,28.1,29.90,WNW,288,3.0,-999.0,83,0.00,,,0.36,Wunderground v.1.15,2013-04-19 02:44:00,
2013-04-18 21:49:00,32.7,28.1,29.90,NW,312,3.0,-999.0,83,0.00,,,0.36,Wunderground v.1.15,2013-04-19 02:49:00,
2013-04-18 21:54:00,32.7,28.1,29.91,NNW,327,3.0,-999.0,83,0.00,,,0.36,Wunderground v.1.15,2013-04-19 02:54:00,
2013-04-18 21:59:00,32.7,28.4,29.91,WNW,295,6.0,-999.0,84,0.00,,,0.36,Wunderground v.1.15,2013-04-19 02:59:00,
2013-04-18 22:04:00,32.6,28.9,29.90,NW,311,6.0,-999.0,86,0.00,,,0.36,Wunderground v.1.15,2013-04-19 03:04:00,
2013-04-18 22:09:00,32.4,29.0,29.90,West,271,7.0,-999.0,87,0.00,,,0.36,Wunderground v.1.15,2013-04-19 03:09:00,
2013-04-18 22:14:00,32.3,28.9,29.90,WNW,293,6.0,-999.0,87,0.00,,,0.36,Wunderground v.1.15,2013-04-19 03:14:00,
2013-04-18 22:19:00,32.3,28.9,29.90,West,277,1.0,-999.0,87,0.00,,,0.36,Wunderground v.1.15,2013-04-19 03:19:00,
2013-04-18 22:24:00,32.3,28.9,29.90,WNW,295,6.0,-999.0,87,0.00,,,0.36,Wunderground v.1.15,2013-04-19 03:24:00,
2013-04-18 22:29:00,32.4,28.7,29.90,WNW,290,3.0,-999.0,86,0.00,,,0.36,Wunderground v.1.15,2013-04-19 03:29:00,
2013-04-18 22:34:00,32.5,28.8,29.90,NW,305,5.0,-999.0,86,0.00,,,0.36,Wunderground v.1.15,2013-04-19 03:34:00,
2013-04-18 22:39:00,32.4,29.0,29.91,West,259,4.0,-999.0,87,0.00,,,0.36,Wunderground v.1.15,2013-04-19 03:39:00,
2013-04-18 22:44:00,32.4,29.2,29.91,WNW,290,7.0,-999.0,88,0.00,,,0.36,Wunderground v.1.15,2013-04-19 03:44:00,
2013-04-18 22:49:00,32.3,29.1,29.90,WNW,289,8.0,-999.0,88,0.00,,,0.36,Wunderground v.1.15,2013-04-19 03:49:00,
2013-04-18 22:54:00,32.2,29.0,29.90,WNW,294,3.0,-999.0,88,0.00,,,0.36,Wunderground v.1.15,2013-04-19 03:54:00,
2013-04-18 22:59:00,32.2,29.0,29.90,WNW,293,6.0,-999.0,88,0.00,,,0.36,Wunderground v.1.15,2013-04-19 03:59:00,
2013-04-18 23:01:00,32.2,29.3,29.90,WNW,287,3.0,-999.0,89,0.00,,,0.36,Wunderground v.1.15,2013-04-19 04:01:00,
2013-04-18 23:06:00,32.3,29.4,29.90,West,281,3.0,-999.0,89,0.00,,,0.36,Wunderground v.1.15,2013-04-19 04:06:00,
2013-04-18 23:11:00,32.3,29.1,29.89,West,274,4.0,-999.0,88,0.00,,,0.36,Wunderground v.1.15,2013-04-19 04:11:00,
2013-04-18 23:16:00,32.3,29.1,29.89,WNW,297,3.0,-999.0,88,0.00,,,0.36,Wunderground v.1.15,2013-04-19 04:16:00,
2013-04-18 23:21:00,32.4,29.0,29.89,West,278,5.0,-999.0,87,0.00,,,0.36,Wunderground v.1.15,2013-04-19 04:21:00,
2013-04-18 23:26:00,32.6,28.9,29.89,NW,304,2.0,-999.0,86,0.00,,,0.36,Wunderground v.1.15,2013-04-19 04:26:00,
2013-04-18 23:31:00,32.8,29.1,29.89,NW,325,5.0,-999.0,86,0.00,,,0.36,Wunderground v.1.15,2013-04-19 04:31:00,
2013-04-18 23:36:00,32.9,28.6,29.88,WNW,298,4.0,-999.0,84,0.00,,,0.36,Wunderground v.1.15,2013-04-19 04:36:00,
2013-04-18 23:41:00,33.1,28.8,29.88,West,273,5.0,-999.0,84,0.00,,,0.36,Wunderground v.1.15,2013-04-19 04:41:00,
2013-04-18 23:46:00,33.1,28.5,29.88,West,278,3.0,-999.0,83,0.00,,,0.36,Wunderground v.1.15,2013-04-19 04:46:00,
2013-04-18 23:51:00,33.1,28.8,29.88,West,281,3.0,-999.0,84,0.00,,,0.36,Wunderground v.1.15,2013-04-19 04:51:00,
2013-04-18 23:56:00,33.1,28.8,29.88,WNW,300,3.0,-999.0,84,0.00,,,0.36,Wunderground v.1.15,2013-04-19 04:56:00,